Location: *
(49.5667°N, 1.3667°W)
Time: 13:57:07
(UTC+00:00)

CZ-4C R/B - Pass Details

Date: 20 September 2019
Orbit: 654 x 1348 km, 63.4° (Epoch: 17 October)

Event Time Altitude Azimuth Distance (km) Brightness Sun altitude
Rises 21:40:30 0° 312° (NW) 3,619 6.6 -31.4°
Reaches altitude 10° 21:43:08 10° 321° (NW) 2,777 5.7 -31.7°
Maximum altitude 21:49:16 37° 28° (NNE) 1,668 3.8 -32.4°
Enters shadow 21:50:38 35° 51° (NE) 1,778 3.8 -32.5°
